• In Germany
  • List of Countries
  • For 7 days
  • Water Temperature
  • Satellite Maps
  • Weather Map
  • Weather Widgets
  • user-avatar
    Login

    Hourly Weather Gliwice

    Today, 23 September, Sunday

    Time Temperature Precipitation Wind Pressure Humidity
    00:00 +13°C° 0.1 mm 3 mps 742 mmHg 62%
    01:00 +13°C° 0 mm 4 mps 742 mmHg 60%
    02:00 +13°C° 0.1 mm 4 mps 742 mmHg 62%
    03:00 +12°C° 0.1 mm 4 mps 742 mmHg 64%
    04:00 +12°C° 0.1 mm 3 mps 742 mmHg 67%
    05:00 +12°C° 0 mm 3 mps 741 mmHg 66%
    06:00 +12°C° 0 mm 4 mps 741 mmHg 66%
    07:00 +13°C° 0 mm 4 mps 741 mmHg 64%
    08:00 +14°C° 0 mm 4 mps 741 mmHg 59%
    09:00 +15°C° 0 mm 5 mps 741 mmHg 55%
    10:00 +16°C° 0 mm 5 mps 741 mmHg 50%
    11:00 +16°C° 0 mm 5 mps 740 mmHg 52%
    12:00 +16°C° 0 mm 6 mps 740 mmHg 54%
    13:00 +16°C° 0 mm 6 mps 739 mmHg 56%
    14:00 +15°C° 0.2 mm 6 mps 739 mmHg 62%
    15:00 +14°C° 0.2 mm 6 mps 738 mmHg 67%
    16:00 +14°C° 0.2 mm 5 mps 737 mmHg 72%
    17:00 +14°C° 0.1 mm 6 mps 735 mmHg 72%
    18:00 +14°C° 0.1 mm 7 mps 734 mmHg 73%
    19:00 +13°C° 0.1 mm 8 mps 732 mmHg 73%
    20:00 +15°C° 0.5 mm 8 mps 731 mmHg 73%
    21:00 +15°C° 0.5 mm 8 mps 730 mmHg 73%
    22:00 +16°C° 0.5 mm 9 mps 729 mmHg 73%
    23:00 +15°C° 2.7 mm 9 mps 730 mmHg 77%

    Tomorrow, 24 September, Monday

    Time Temperature Precipitation Wind Pressure Humidity
    00:00 +15°C° 2.7 mm 9 mps 730 mmHg 81%
    01:00 +13°C° 2.7 mm 9 mps 731 mmHg 85%
    02:00 +11°C° 0.6 mm 9 mps 733 mmHg 84%
    03:00 +10°C° 0.6 mm 9 mps 734 mmHg 83%
    04:00 +7°C° 0.6 mm 9 mps 736 mmHg 81%
    05:00 +7°C° 0.1 mm 9 mps 737 mmHg 81%
    06:00 +7°C° 0.1 mm 8 mps 738 mmHg 81%
    07:00 +8°C° 0.1 mm 7 mps 739 mmHg 81%
    08:00 +7°C° 0.2 mm 8 mps 740 mmHg 77%
    09:00 +7°C° 0.2 mm 8 mps 741 mmHg 74%
    10:00 +8°C° 0.2 mm 9 mps 742 mmHg 70%
    11:00 +8°C° 0.2 mm 9 mps 743 mmHg 67%
    12:00 +10°C° 0.2 mm 9 mps 744 mmHg 63%
    13:00 +10°C° 0.2 mm 9 mps 744 mmHg 59%
    14:00 +10°C° 0.1 mm 9 mps 744 mmHg 57%
    15:00 +10°C° 0.1 mm 9 mps 744 mmHg 55%
    16:00 +10°C° 0.1 mm 8 mps 744 mmHg 54%
    17:00 +9°C° 0 mm 8 mps 745 mmHg 56%
    18:00 +8°C° 0 mm 7 mps 745 mmHg 58%
    19:00 +7°C° 0 mm 6 mps 745 mmHg 60%
    20:00 +7°C° 0.1 mm 6 mps 746 mmHg 62%
    21:00 +7°C° 0.1 mm 6 mps 746 mmHg 64%
    22:00 +5°C° 0.1 mm 6 mps 747 mmHg 66%
    23:00 +5°C° 0.2 mm 6 mps 748 mmHg 70%

    Day after tomorrow, 25 September, Tuesday

    Time Temperature Precipitation Wind Pressure Humidity
    00:00 +5°C° 0.2 mm 6 mps 748 mmHg 75%
    01:00 +5°C° 0.2 mm 6 mps 749 mmHg 79%
    02:00 +6°C° 0 mm 5 mps 749 mmHg 80%
    03:00 +5°C° 0 mm 5 mps 749 mmHg 81%
    04:00 +5°C° 0 mm 4 mps 750 mmHg 83%
    05:00 +5°C° 0 mm 4 mps 750 mmHg 81%
    06:00 +5°C° 0 mm 4 mps 751 mmHg 80%
    07:00 +5°C° 0 mm 4 mps 752 mmHg 78%
    08:00 +6°C° 0 mm 5 mps 752 mmHg 73%
    09:00 +7°C° 0 mm 5 mps 752 mmHg 69%
    10:00 +8°C° 0 mm 5 mps 753 mmHg 64%
    11:00 +9°C° 0.2 mm 5 mps 753 mmHg 61%
    12:00 +10°C° 0.2 mm 5 mps 753 mmHg 57%
    13:00 +12°C° 0.2 mm 5 mps 753 mmHg 54%
    14:00 +10°C° 0.1 mm 5 mps 753 mmHg 54%
    15:00 +10°C° 0.1 mm 5 mps 753 mmHg 55%
    16:00 +10°C° 0.1 mm 5 mps 753 mmHg 55%
    17:00 +10°C° 0 mm 4 mps 753 mmHg 61%
    18:00 +9°C° 0 mm 3 mps 754 mmHg 66%
    19:00 +8°C° 0 mm 2 mps 754 mmHg 71%
    20:00 +7°C° 0 mm 2 mps 755 mmHg 73%
    21:00 +7°C° 0 mm 2 mps 755 mmHg 75%
    22:00 +6°C° 0 mm 2 mps 755 mmHg 76%
    23:00 +7°C° 0 mm 1 mps 755 mmHg 77%

    26 September, Wednesday

    Time Temperature Precipitation Wind Pressure Humidity
    00:00 +6°C° 0 mm 1 mps 755 mmHg 79%
    01:00 +6°C° 0 mm 1 mps 755 mmHg 80%
    02:00 +6°C° 0 mm 1 mps 755 mmHg 80%
    03:00 +6°C° 0 mm 1 mps 755 mmHg 81%
    04:00 +5°C° 0 mm 1 mps 755 mmHg 81%
    05:00 +6°C° 0 mm 1 mps 755 mmHg 79%
    06:00 +5°C° 0 mm 2 mps 755 mmHg 77%
    07:00 +6°C° 0 mm 2 mps 755 mmHg 75%
    08:00 +8°C° 0 mm 2 mps 755 mmHg 66%
    09:00 +10°C° 0 mm 3 mps 755 mmHg 57%
    10:00 +12°C° 0 mm 3 mps 755 mmHg 49%
    11:00 +13°C° 0 mm 3 mps 754 mmHg 46%
    12:00 +14°C° 0 mm 4 mps 754 mmHg 43%
    13:00 +15°C° 0 mm 4 mps 753 mmHg 40%
    14:00 +15°C° 0 mm 4 mps 752 mmHg 42%
    15:00 +14°C° 0 mm 4 mps 752 mmHg 43%
    16:00 +14°C° 0 mm 4 mps 751 mmHg 45%
    17:00 +13°C° 0 mm 4 mps 751 mmHg 48%
    18:00 +12°C° 0 mm 4 mps 751 mmHg 51%
    19:00 +11°C° 0 mm 4 mps 751 mmHg 54%
    20:00 +11°C° 0 mm 4 mps 751 mmHg 53%
    21:00 +11°C° 0 mm 4 mps 751 mmHg 52%
    22:00 +11°C° 0 mm 4 mps 750 mmHg 51%
    23:00 +10°C° 0 mm 4 mps 750 mmHg 51%

    27 September, Thursday

    Time Temperature Precipitation Wind Pressure Humidity
    00:00 +10°C° 0 mm 4 mps 750 mmHg 52%
    01:00 +10°C° 0 mm 4 mps 750 mmHg 52%
    02:00 +10°C° 0 mm 4 mps 749 mmHg 52%
    03:00 +10°C° 0 mm 4 mps 749 mmHg 51%
    04:00 +10°C° 0 mm 4 mps 749 mmHg 51%
    05:00 +10°C° 0 mm 4 mps 749 mmHg 51%
    06:00 +11°C° 0 mm 4 mps 749 mmHg 51%
    07:00 +11°C° 0 mm 4 mps 749 mmHg 50%
    08:00 +13°C° 0 mm 4 mps 749 mmHg 49%
    09:00 +15°C° 0 mm 4 mps 749 mmHg 48%
    10:00 +17°C° 0 mm 4 mps 749 mmHg 47%
    11:00 +19°C° 0 mm 4 mps 748 mmHg 48%
    12:00 +20°C° 0 mm 4 mps 748 mmHg 49%
    13:00 +21°C° 0 mm 4 mps 748 mmHg 49%
    14:00 +21°C° 0 mm 4 mps 747 mmHg 52%
    15:00 +21°C° 0 mm 3 mps 747 mmHg 54%
    16:00 +21°C° 0 mm 3 mps 747 mmHg 56%
    17:00 +19°C° 0 mm 3 mps 747 mmHg 61%
    18:00 +18°C° 0 mm 2 mps 747 mmHg 66%
    19:00 +16°C° 0 mm 2 mps 747 mmHg 71%
    20:00 +16°C° 0 mm 2 mps 747 mmHg 71%
    21:00 +15°C° 0 mm 2 mps 746 mmHg 71%
    22:00 +15°C° 0 mm 2 mps 746 mmHg 71%
    23:00 +14°C° 0 mm 2 mps 746 mmHg 71%

    28 September, Friday

    Time Temperature Precipitation Wind Pressure Humidity
    00:00 +14°C° 0 mm 2 mps 745 mmHg 71%
    01:00 +14°C° 0 mm 2 mps 745 mmHg 71%
    02:00 +13°C° 0 mm 3 mps 745 mmHg 70%
    03:00 +13°C° 0 mm 3 mps 744 mmHg 70%
    04:00 +12°C° 0 mm 3 mps 744 mmHg 70%
    05:00 +13°C° 0 mm 3 mps 744 mmHg 68%
    06:00 +13°C° 0 mm 3 mps 744 mmHg 66%
    07:00 +13°C° 0 mm 3 mps 744 mmHg 65%
    08:00 +16°C° 0 mm 3 mps 744 mmHg 58%
    09:00 +18°C° 0 mm 3 mps 743 mmHg 51%
    10:00 +20°C° 0 mm 3 mps 743 mmHg 45%
    11:00 +21°C° 0 mm 3 mps 743 mmHg 43%
    12:00 +22°C° 0 mm 3 mps 743 mmHg 41%
    13:00 +22°C° 0 mm 3 mps 743 mmHg 40%
    14:00 +23°C° 0 mm 2 mps 742 mmHg 42%
    15:00 +23°C° 0 mm 2 mps 742 mmHg 44%
    16:00 +21°C° 0 mm 2 mps 742 mmHg 46%
    17:00 +20°C° 0 mm 2 mps 742 mmHg 52%
    18:00 +18°C° 0 mm 2 mps 742 mmHg 59%
    19:00 +16°C° 0 mm 1 mps 743 mmHg 66%
    20:00 +15°C° 0 mm 2 mps 743 mmHg 71%
    21:00 +15°C° 0 mm 2 mps 743 mmHg 76%
    22:00 +14°C° 0 mm 2 mps 743 mmHg 82%
    23:00 +14°C° 0 mm 2 mps 743 mmHg 84%
    Show more